| time (UTC) | temp C | wind direction | speed KPH | gust KPH | rain 1hr cm | rain 24hr cm | rain mn cm | humidity % | barometer mb |
| 20260906214737 | 30 | 18 | 1.6 | 12.9 | 0.00 | 0.00 | 0.00 | 39 | 1024.4 |
| 20260906214232 | 31 | 108 | 6.4 | 12.9 | 0.00 | 0.00 | 0.00 | 39 | 1024.4 |
| 20260906213732 | 31 | 99 | 6.4 | 11.3 | 0.00 | 0.00 | 0.00 | 38 | 1024.2 |
| 20260906213231 | 32 | 56 | 6.4 | 6.4 | 0.00 | 0.00 | 0.00 | 37 | 1024.5 |
| 20260906212729 | 31 | 123 | 3.2 | 4.8 | 0.00 | 0.00 | 0.00 | 38 | 1024.6 |
| 20260906212225 | 31 | 47 | 6.4 | 11.3 | 0.00 | 0.00 | 0.00 | 38 | 1024.6 |
| 20260906211724 | 31 | 63 | 6.4 | 11.3 | 0.00 | 0.00 | 0.00 | 39 | 1024.4 |
| 20260906211220 | 31 | 122 | 4.8 | 9.7 | 0.00 | 0.00 | 0.00 | 36 | 1024.9 |
| 20260906210715 | 32 | 132 | 3.2 | 9.7 | 0.00 | 0.00 | 0.00 | 37 | 1024.9 |
| 20260906210215 | 31 | 79 | 3.2 | 11.3 | 0.00 | 0.00 | 0.00 | 37 | 1024.8 |
| 20260906205710 | 31 | 227 | 4.8 | 4.8 | 0.00 | 0.00 | 0.00 | 38 | 1024.9 |
| 20260906205207 | 30 | 54 | 3.2 | 6.4 | 0.00 | 0.00 | 0.00 | 38 | 1024.8 |
| 20260906204706 | 30 | 144 | 4.8 | 9.7 | 0.00 | 0.00 | 0.00 | 40 | 1025.1 |
| 20260906204200 | 31 | 92 | 8.0 | 9.7 | 0.00 | 0.00 | 0.00 | 39 | 1025.1 |
| 20260906203700 | 31 | 11 | 11.3 | 12.9 | 0.00 | 0.00 | 0.00 | 40 | 1025.1 |
| 20260906203155 | 31 | 294 | 0.0 | 3.2 | 0.00 | 0.00 | 0.00 | 40 | 1025.3 |
| 20260906202652 | 31 | 165 | 4.8 | 6.4 | 0.00 | 0.00 | 0.00 | 41 | 1025.3 |
| 20260906202151 | 32 | 101 | 3.2 | 9.7 | 0.00 | 0.00 | 0.00 | 39 | 1025.2 |
| 20260906201646 | 31 | 316 | 0.0 | 1.6 | 0.00 | 0.00 | 0.00 | 41 | 1025.1 |
| 20260906201145 | 31 | 118 | 3.2 | 9.7 | 0.00 | 0.00 | 0.00 | 42 | 1025.1 |
| 20260906200642 | 30 | 302 | 0.0 | 4.8 | 0.00 | 0.00 | 0.00 | 42 | 1025.4 |
| 20260906200138 | 30 | 327 | 4.8 | 4.8 | 0.00 | 0.00 | 0.00 | 41 | 1025.5 |
| 20260906195633 | 30 | 341 | 1.6 | 1.6 | 0.00 | 0.00 | 0.00 | 40 | 1025.6 |
| 20260906195129 | 30 | 128 | 3.2 | 4.8 | 0.00 | 0.00 | 0.00 | 39 | 1025.6 |
| 20260906194625 | 30 | 18 | 1.6 | 4.8 | 0.00 | 0.00 | 0.00 | 41 | 1025.6 |
| 20260906194120 | 28 | 358 | 3.2 | 4.8 | 0.00 | 0.00 | 0.00 | 42 | 1025.8 |
| 20260906193615 | 30 | 121 | 3.2 | 4.8 | 0.00 | 0.00 | 0.00 | 40 | 1025.8 |
| 20260906193110 | 30 | 232 | 6.4 | 6.4 | 0.00 | 0.00 | 0.00 | 41 | 1026.1 |
| 20260906192606 | 30 | 333 | 1.6 | 1.6 | 0.00 | 0.00 | 0.00 | 42 | 1025.9 |
| 20260906192105 | 30 | 73 | 3.2 | 6.4 | 0.00 | 0.00 | 0.00 | 42 | 1025.8 |
| 20260906191600 | 30 | 15 | 1.6 | 3.2 | 0.00 | 0.00 | 0.00 | 41 | 1026.1 |
| 20260906191059 | 30 | 0 | 1.6 | 3.2 | 0.00 | 0.00 | 0.00 | 42 | 1026.1 |
| 20260906190558 | 29 | 291 | 0.0 | 0.0 | 0.00 | 0.00 | 0.00 | 42 | 1026.3 |
| 20260906190053 | 28 | 84 | 4.8 | 4.8 | 0.00 | 0.00 | 0.00 | 44 | 1026.3 |
| 20260906185552 | 29 | 79 | 3.2 | 4.8 | 0.00 | 0.00 | 0.00 | 43 | 1026.7 |
| 20260906185051 | 28 | 330 | 0.0 | 1.6 | 0.00 | 0.00 | 0.00 | 45 | 1026.8 |
| 20260906184546 | 27 | 14 | 1.6 | 6.4 | 0.00 | 0.00 | 0.00 | 48 | 1026.8 |
| 20260906184042 | 28 | 305 | 1.6 | 3.2 | 0.00 | 0.00 | 0.00 | 46 | 1027.0 |
| 20260906183538 | 28 | 342 | 1.6 | 4.8 | 0.00 | 0.00 | 0.00 | 47 | 1027.0 |
| 20260906183033 | 28 | 287 | 3.2 | 3.2 | 0.00 | 0.00 | 0.00 | 46 | 1027.0 |
| 20260906182528 | 27 | 54 | 3.2 | 6.4 | 0.00 | 0.00 | 0.00 | 48 | 1027.2 |
| 20260906182025 | 27 | 330 | 3.2 | 3.2 | 0.00 | 0.00 | 0.00 | 48 | 1027.5 |
| 20260906181520 | 27 | 339 | 3.2 | 4.8 | 0.00 | 0.00 | 0.00 | 48 | 1027.3 |
| 20260906181015 | 26 | 93 | 6.4 | 6.4 | 0.00 | 0.00 | 0.00 | 49 | 1027.5 |
| 20260906180510 | 26 | 335 | 4.8 | 4.8 | 0.00 | 0.00 | 0.00 | 51 | 1027.7 |
| 20260906180009 | 26 | 293 | 0.0 | 3.2 | 0.00 | 0.00 | 0.00 | 53 | 1028.0 |
| 20260906175503 | 27 | 19 | 6.4 | 6.4 | 0.00 | 0.00 | 0.00 | 51 | 1027.9 |
| 20260906175003 | 26 | 352 | 3.2 | 3.2 | 0.00 | 0.00 | 0.00 | 54 | 1027.9 |
| 20260906174501 | 26 | 109 | 6.4 | 6.4 | 0.00 | 0.00 | 0.00 | 55 | 1028.3 |
| 20260906173956 | 25 | 349 | 1.6 | 1.6 | 0.00 | 0.00 | 0.00 | 55 | 1028.1 |
| 20260906173451 | 25 | 1 | 4.8 | 6.4 | 0.00 | 0.00 | 0.00 | 56 | 1028.3 |
| 20260906172951 | 25 | 357 | 0.0 | 4.8 | 0.00 | 0.00 | 0.00 | 55 | 1028.3 |
| 20260906172447 | 25 | 30 | 3.2 | 4.8 | 0.00 | 0.00 | 0.00 | 56 | 1028.6 |
| 20260906171942 | 25 | 8 | 3.2 | 3.2 | 0.00 | 0.00 | 0.00 | 58 | 1028.4 |
| 20260906171437 | 25 | 323 | 0.0 | 1.6 | 0.00 | 0.00 | 0.00 | 56 | 1028.6 |
| 20260906170932 | 25 | 58 | 3.2 | 4.8 | 0.00 | 0.00 | 0.00 | 56 | 1028.9 |
| 20260906170429 | 25 | 92 | 3.2 | 4.8 | 0.00 | 0.00 | 0.00 | 58 | 1028.7 |
| 20260906165925 | 24 | 146 | 3.2 | 4.8 | 0.00 | 0.00 | 0.00 | 59 | 1029.0 |
| 20260906165424 | 24 | 320 | 1.6 | 4.8 | 0.00 | 0.00 | 0.00 | 61 | 1029.0 |
| 20260906164920 | 24 | 339 | 1.6 | 4.8 | 0.00 | 0.00 | 0.00 | 59 | 1029.1 |
| 20260906164418 | 25 | 322 | 0.0 | 3.2 | 0.00 | 0.00 | 0.00 | 58 | 1028.7 |
| 20260906163915 | 24 | 328 | 0.0 | 3.2 | 0.00 | 0.00 | 0.00 | 58 | 1028.7 |
| 20260906163411 | 22 | 6 | 3.2 | 4.8 | 0.00 | 0.00 | 0.00 | 62 | 1028.7 |
| 20260906162909 | 23 | 22 | 6.4 | 9.7 | 0.00 | 0.00 | 0.00 | 62 | 1028.8 |
| 20260906162407 | 23 | 330 | 0.0 | 0.0 | 0.00 | 0.00 | 0.00 | 63 | 1028.6 |
| 20260906161902 | 22 | 270 | 3.2 | 3.2 | 0.00 | 0.00 | 0.00 | 64 | 1028.7 |
| 20260906161402 | 22 | 4 | 6.4 | 6.4 | 0.00 | 0.00 | 0.00 | 66 | 1028.6 |
| 20260906160901 | 22 | 6 | 0.0 | 1.6 | 0.00 | 0.00 | 0.00 | 65 | 1028.6 |
| 20260906160355 | 22 | 25 | 1.6 | 4.8 | 0.00 | 0.00 | 0.00 | 65 | 1029.0 |
| 20260906155853 | 23 | 344 | 3.2 | 9.7 | 0.00 | 0.00 | 0.00 | 65 | 1028.9 |
| 20260906155347 | 22 | 337 | 3.2 | 6.4 | 0.00 | 0.00 | 0.00 | 66 | 1028.7 |
| 20260906154844 | 22 | 19 | 3.2 | 6.4 | 0.00 | 0.00 | 0.00 | 67 | 1028.9 |
| 20260906154337 | 22 | 41 | 1.6 | 4.8 | 0.00 | 0.00 | 0.00 | 67 | 1029.0 |
| 20260906153836 | 22 | 326 | 1.6 | 4.8 | 0.00 | 0.00 | 0.00 | 67 | 1029.0 |
| 20260906153336 | 22 | 329 | 3.2 | 4.8 | 0.00 | 0.00 | 0.00 | 67 | 1029.1 |
| 20260906152831 | 21 | 324 | 3.2 | 4.8 | 0.00 | 0.00 | 0.00 | 67 | 1029.1 |
| 20260906152326 | 21 | 113 | 4.8 | 9.7 | 0.00 | 0.00 | 0.00 | 68 | 1029.0 |
| 20260906151825 | 21 | 34 | 3.2 | 4.8 | 0.00 | 0.00 | 0.00 | 67 | 1029.1 |
| 20260906151321 | 20 | 90 | 3.2 | 6.4 | 0.00 | 0.00 | 0.00 | 70 | 1029.0 |
| 20260906150816 | 20 | 23 | 1.6 | 3.2 | 0.00 | 0.00 | 0.00 | 69 | 1029.4 |
| 20260906150312 | 20 | 1 | 1.6 | 3.2 | 0.00 | 0.00 | 0.00 | 73 | 1029.3 |
| 20260906145811 | 20 | 352 | 1.6 | 3.2 | 0.00 | 0.00 | 0.00 | 72 | 1029.3 |
| 20260906145309 | 19 | 52 | 6.4 | 6.4 | 0.00 | 0.00 | 0.00 | 73 | 1029.3 |
| 20260906144805 | 20 | 33 | 3.2 | 4.8 | 0.00 | 0.00 | 0.00 | 72 | 1029.4 |
| 20260906144300 | 20 | 336 | 3.2 | 9.7 | 0.00 | 0.00 | 0.00 | 71 | 1029.3 |
| 20260906143759 | 20 | 28 | 8.0 | 9.7 | 0.00 | 0.00 | 0.00 | 70 | 1029.3 |
| 20260906143256 | 20 | 332 | 0.0 | 4.8 | 0.00 | 0.00 | 0.00 | 70 | 1029.3 |
| 20260906142756 | 20 | 329 | 3.2 | 3.2 | 0.00 | 0.00 | 0.00 | 71 | 1029.3 |
| 20260906142251 | 20 | 4 | 3.2 | 6.4 | 0.00 | 0.00 | 0.00 | 72 | 1029.0 |
| 20260906141750 | 19 | 353 | 3.2 | 3.2 | 0.00 | 0.00 | 0.00 | 72 | 1029.1 |
| 20260906141245 | 19 | 324 | 3.2 | 4.8 | 0.00 | 0.00 | 0.00 | 72 | 1029.0 |
| 20260906140744 | 18 | 276 | 3.2 | 3.2 | 0.00 | 0.00 | 0.00 | 72 | 1029.0 |
| 20260906140239 | 18 | 315 | 0.0 | 1.6 | 0.00 | 0.00 | 0.00 | 73 | 1029.3 |
| 20260906135736 | 18 | 310 | 1.6 | 3.2 | 0.00 | 0.00 | 0.00 | 74 | 1029.4 |
| 20260906135232 | 18 | 319 | 0.0 | 3.2 | 0.00 | 0.00 | 0.00 | 78 | 1029.4 |
| 20260906134727 | 18 | 314 | 0.0 | 0.0 | 0.00 | 0.00 | 0.00 | 78 | 1029.1 |
| 20260906134223 | 18 | 305 | 0.0 | 0.0 | 0.00 | 0.00 | 0.00 | 79 | 1029.0 |
| 20260906133718 | 17 | 312 | 0.0 | 1.6 | 0.00 | 0.00 | 0.00 | 81 | 1029.0 |
| 20260906133214 | 17 | 316 | 0.0 | 1.6 | 0.00 | 0.00 | 0.00 | 82 | 1029.3 |
| 20260906132709 | 17 | 322 | 0.0 | 1.6 | 0.00 | 0.00 | 0.00 | 82 | 1028.9 |
| 20260906132204 | 17 | 307 | 0.0 | 1.6 | 0.00 | 0.00 | 0.00 | 82 | 1029.0 |
| 20260906131700 | 17 | 316 | 0.0 | 0.0 | 0.00 | 0.00 | 0.00 | 82 | 1029.1 |
| 20260906131154 | 17 | 317 | 0.0 | 3.2 | 0.00 | 0.00 | 0.00 | 82 | 1028.9 |
| 20260906130650 | 17 | 306 | 0.0 | 0.0 | 0.00 | 0.00 | 0.00 | 82 | 1029.0 |
| 20260906130145 | 17 | 316 | 0.0 | 1.6 | 0.00 | 0.00 | 0.00 | 83 | 1029.0 |
| 20260906125643 | 17 | 353 | 1.6 | 3.2 | 0.00 | 0.00 | 0.00 | 84 | 1028.8 |
| 20260906125141 | 16 | 354 | 1.6 | 3.2 | 0.00 | 0.00 | 0.00 | 84 | 1028.7 |
| 20260906124637 | 16 | 335 | 1.6 | 1.6 | 0.00 | 0.00 | 0.00 | 84 | 1029.1 |
| 20260906124132 | 16 | 322 | 1.6 | 1.6 | 0.00 | 0.00 | 0.00 | 85 | 1028.9 |
| 20260906123631 | 16 | 327 | 0.0 | 3.2 | 0.00 | 0.00 | 0.00 | 85 | 1028.9 |
| 20260906123127 | 16 | 310 | 0.0 | 0.0 | 0.00 | 0.00 | 0.00 | 85 | 1028.7 |
| 20260906122626 | 16 | 318 | 0.0 | 1.6 | 0.00 | 0.00 | 0.00 | 85 | 1028.6 |
| 20260906122122 | 16 | 324 | 1.6 | 3.2 | 0.00 | 0.00 | 0.00 | 85 | 1028.7 |
| 20260906121618 | 16 | 312 | 0.0 | 1.6 | 0.00 | 0.00 | 0.00 | 85 | 1028.8 |
| 20260906121114 | 16 | 302 | 0.0 | 1.6 | 0.00 | 0.00 | 0.00 | 86 | 1028.6 |
| 20260906120609 | 16 | 308 | 0.0 | 0.0 | 0.00 | 0.00 | 0.00 | 85 | 1028.8 |
| 20260906120107 | 16 | 321 | 0.0 | 1.6 | 0.00 | 0.00 | 0.00 | 85 | 1028.7 |
| 20260906115601 | 16 | 299 | 0.0 | 0.0 | 0.00 | 0.00 | 0.00 | 84 | 1028.7 |
| 20260906115056 | 16 | 307 | 0.0 | 0.0 | 0.00 | 0.00 | 0.00 | 84 | 1028.8 |
| 20260906114555 | 16 | 303 | 0.0 | 0.0 | 0.00 | 0.00 | 0.00 | 83 | 1028.7 |
| 20260906114051 | 17 | 306 | 0.0 | 0.0 | 0.00 | 0.00 | 0.00 | 82 | 1028.7 |
| 20260906113550 | 17 | 297 | 1.6 | 1.6 | 0.00 | 0.00 | 0.00 | 81 | 1028.7 |
| 20260906113045 | 17 | 297 | 3.2 | 3.2 | 0.00 | 0.00 | 0.00 | 80 | 1028.7 |
| 20260906112540 | 17 | 304 | 1.6 | 4.8 | 0.00 | 0.00 | 0.00 | 80 | 1028.8 |
| 20260906112036 | 17 | 319 | 0.0 | 1.6 | 0.00 | 0.00 | 0.00 | 78 | 1028.4 |
| 20260906111530 | 17 | 320 | 0.0 | 3.2 | 0.00 | 0.00 | 0.00 | 78 | 1028.6 |
| 20260906111026 | 17 | 307 | 1.6 | 3.2 | 0.00 | 0.00 | 0.00 | 77 | 1028.7 |
| 20260906110525 | 17 | 328 | 0.0 | 1.6 | 0.00 | 0.00 | 0.00 | 76 | 1028.6 |
| 20260906110025 | 17 | 302 | 6.4 | 6.4 | 0.00 | 0.00 | 0.00 | 76 | 1028.7 |
| 20260906105520 | 17 | 345 | 1.6 | 1.6 | 0.00 | 0.00 | 0.00 | 75 | 1028.4 |
| 20260906105016 | 17 | 313 | 1.6 | 1.6 | 0.00 | 0.00 | 0.00 | 75 | 1028.4 |
| 20260906104514 | 17 | 300 | 0.0 | 0.0 | 0.00 | 0.00 | 0.00 | 74 | 1028.6 |
| 20260906104009 | 17 | 301 | 3.2 | 3.2 | 0.00 | 0.00 | 0.00 | 74 | 1028.4 |
| 20260906103507 | 17 | 314 | 0.0 | 1.6 | 0.00 | 0.00 | 0.00 | 72 | 1028.4 |
| 20260906103003 | 17 | 302 | 0.0 | 1.6 | 0.00 | 0.00 | 0.00 | 72 | 1028.4 |
| 20260906102503 | 17 | 305 | 1.6 | 3.2 | 0.00 | 0.00 | 0.00 | 71 | 1028.6 |
| 20260906102002 | 17 | 321 | 0.0 | 0.0 | 0.00 | 0.00 | 0.00 | 70 | 1028.6 |
| 20260906101458 | 18 | 315 | 0.0 | 1.6 | 0.00 | 0.00 | 0.00 | 69 | 1028.4 |
| 20260906100953 | 18 | 323 | 0.0 | 0.0 | 0.00 | 0.00 | 0.00 | 68 | 1028.6 |
| 20260906100448 | 18 | 311 | 0.0 | 3.2 | 0.00 | 0.00 | 0.00 | 67 | 1028.8 |
| 20260906095947 | 18 | 304 | 0.0 | 0.0 | 0.00 | 0.00 | 0.00 | 67 | 1028.4 |
| 20260906095444 | 18 | 315 | 0.0 | 1.6 | 0.00 | 0.00 | 0.00 | 66 | 1028.4 |
| 20260906094938 | 18 | 345 | 0.0 | 1.6 | 0.00 | 0.00 | 0.00 | 66 | 1028.6 |
| 20260906094432 | 18 | 310 | 0.0 | 1.6 | 0.00 | 0.00 | 0.00 | 67 | 1028.2 |
| 20260906093928 | 18 | 353 | 0.0 | 1.6 | 0.00 | 0.00 | 0.00 | 66 | 1028.3 |
| 20260906093425 | 18 | 303 | 1.6 | 1.6 | 0.00 | 0.00 | 0.00 | 66 | 1028.1 |
| 20260906092924 | 18 | 299 | 0.0 | 1.6 | 0.00 | 0.00 | 0.00 | 66 | 1027.9 |
| 20260906092424 | 18 | 314 | 0.0 | 1.6 | 0.00 | 0.00 | 0.00 | 66 | 1027.9 |
| 20260906091920 | 18 | 348 | 0.0 | 0.0 | 0.00 | 0.00 | 0.00 | 65 | 1028.0 |
| 20260906091416 | 18 | 307 | 1.6 | 3.2 | 0.00 | 0.00 | 0.00 | 64 | 1027.7 |
| 20260906090912 | 18 | 307 | 0.0 | 1.6 | 0.00 | 0.00 | 0.00 | 64 | 1027.7 |
| 20260906090411 | 18 | 307 | 0.0 | 0.0 | 0.00 | 0.00 | 0.00 | 64 | 1027.5 |
| 20260906085906 | 18 | 309 | 1.6 | 3.2 | 0.00 | 0.00 | 0.00 | 63 | 1027.5 |
| 20260906085406 | 18 | 306 | 1.6 | 1.6 | 0.00 | 0.00 | 0.00 | 63 | 1027.7 |
| 20260906084905 | 18 | 312 | 0.0 | 1.6 | 0.00 | 0.00 | 0.00 | 62 | 1027.9 |
| 20260906084400 | 18 | 308 | 0.0 | 1.6 | 0.00 | 0.00 | 0.00 | 62 | 1027.6 |
| 20260906083854 | 18 | 317 | 0.0 | 1.6 | 0.00 | 0.00 | 0.00 | 61 | 1027.5 |
| 20260906083349 | 18 | 305 | 1.6 | 3.2 | 0.00 | 0.00 | 0.00 | 61 | 1028.0 |
| 20260906082849 | 19 | 320 | 1.6 | 1.6 | 0.00 | 0.00 | 0.00 | 61 | 1027.9 |
| 20260906082344 | 19 | 336 | 1.6 | 3.2 | 0.00 | 0.00 | 0.00 | 61 | 1027.6 |
| 20260906081840 | 19 | 312 | 0.0 | 1.6 | 0.00 | 0.00 | 0.00 | 61 | 1028.1 |
| 20260906081336 | 19 | 15 | 1.6 | 1.6 | 0.00 | 0.00 | 0.00 | 61 | 1027.9 |
| 20260906080832 | 19 | 306 | 0.0 | 1.6 | 0.00 | 0.00 | 0.00 | 60 | 1028.0 |
| 20260906080328 | 19 | 303 | 1.6 | 1.6 | 0.00 | 0.00 | 0.00 | 60 | 1028.0 |
| 20260906075827 | 19 | 303 | 0.0 | 0.0 | 0.00 | 0.00 | 0.00 | 60 | 1027.9 |
| 20260906075322 | 19 | 291 | 1.6 | 3.2 | 0.00 | 0.00 | 0.00 | 59 | 1028.0 |
| 20260906074818 | 20 | 294 | 1.6 | 4.8 | 0.00 | 0.00 | 0.00 | 59 | 1027.9 |
| 20260906074317 | 20 | 325 | 0.0 | 1.6 | 0.00 | 0.00 | 0.00 | 59 | 1028.1 |
| 20260906073816 | 20 | 302 | 0.0 | 0.0 | 0.00 | 0.00 | 0.00 | 58 | 1028.2 |
| 20260906073311 | 20 | 316 | 0.0 | 1.6 | 0.00 | 0.00 | 0.00 | 57 | 1027.9 |
| 20260906072808 | 20 | 319 | 0.0 | 3.2 | 0.00 | 0.00 | 0.00 | 56 | 1027.7 |
| 20260906072305 | 20 | 314 | 1.6 | 3.2 | 0.00 | 0.00 | 0.00 | 55 | 1027.6 |
| 20260906071759 | 20 | 319 | 0.0 | 1.6 | 0.00 | 0.00 | 0.00 | 56 | 1027.5 |
| 20260906071259 | 20 | 299 | 1.6 | 3.2 | 0.00 | 0.00 | 0.00 | 57 | 1027.7 |
| 20260906070755 | 20 | 11 | 3.2 | 4.8 | 0.00 | 0.00 | 0.00 | 57 | 1027.6 |
| 20260906070250 | 20 | 350 | 1.6 | 4.8 | 0.00 | 0.00 | 0.00 | 56 | 1027.7 |
| 20260906065749 | 20 | 331 | 0.0 | 4.8 | 0.00 | 0.00 | 0.00 | 56 | 1027.9 |
| 20260906065245 | 20 | 325 | 1.6 | 3.2 | 0.00 | 0.00 | 0.00 | 55 | 1027.7 |
| 20260906064741 | 20 | 288 | 1.6 | 3.2 | 0.00 | 0.00 | 0.00 | 54 | 1028.1 |
| 20260906064236 | 20 | 320 | 0.0 | 0.0 | 0.00 | 0.00 | 0.00 | 54 | 1028.2 |
| 20260906063731 | 20 | 328 | 0.0 | 0.0 | 0.00 | 0.00 | 0.00 | 53 | 1028.0 |
| 20260906063227 | 21 | 257 | 1.6 | 3.2 | 0.00 | 0.00 | 0.00 | 52 | 1028.2 |
| 20260906062722 | 21 | 317 | 0.0 | 0.0 | 0.00 | 0.00 | 0.00 | 52 | 1028.0 |
| 20260906062221 | 21 | 323 | 0.0 | 1.6 | 0.00 | 0.00 | 0.00 | 52 | 1028.0 |
| 20260906061717 | 21 | 321 | 0.0 | 0.0 | 0.00 | 0.00 | 0.00 | 51 | 1028.2 |
| 20260906061214 | 21 | 322 | 0.0 | 0.0 | 0.00 | 0.00 | 0.00 | 50 | 1028.2 |
| 20260906060709 | 21 | 21 | 0.0 | 0.0 | 0.00 | 0.00 | 0.00 | 50 | 1028.3 |
| 20260906060206 | 21 | 294 | 0.0 | 0.0 | 0.00 | 0.00 | 0.00 | 51 | 1028.2 |
| 20260906055701 | 21 | 293 | 1.6 | 1.6 | 0.00 | 0.00 | 0.00 | 51 | 1027.9 |
| 20260906055156 | 21 | 309 | 0.0 | 1.6 | 0.00 | 0.00 | 0.00 | 50 | 1027.6 |
| 20260906054651 | 21 | 310 | 3.2 | 3.2 | 0.00 | 0.00 | 0.00 | 50 | 1027.7 |
| 20260906054146 | 21 | 274 | 0.0 | 1.6 | 0.00 | 0.00 | 0.00 | 50 | 1027.5 |
| 20260906053643 | 22 | 305 | 3.2 | 4.8 | 0.00 | 0.00 | 0.00 | 49 | 1027.9 |
| 20260906053137 | 22 | 315 | 1.6 | 1.6 | 0.00 | 0.00 | 0.00 | 48 | 1027.9 |
| 20260906052633 | 22 | 316 | 0.0 | 1.6 | 0.00 | 0.00 | 0.00 | 48 | 1027.7 |
| 20260906052129 | 22 | 317 | 1.6 | 3.2 | 0.00 | 0.00 | 0.00 | 47 | 1027.9 |
| 20260906051625 | 22 | 342 | 0.0 | 6.4 | 0.00 | 0.00 | 0.00 | 48 | 1027.9 |
| 20260906051120 | 22 | 306 | 0.0 | 1.6 | 0.00 | 0.00 | 0.00 | 47 | 1027.9 |
| 20260906050616 | 22 | 0 | 1.6 | 1.6 | 0.00 | 0.00 | 0.00 | 49 | 1027.7 |
| 20260906050111 | 22 | 316 | 0.0 | 1.6 | 0.00 | 0.00 | 0.00 | 50 | 1027.3 |
| 20260906045609 | 22 | 91 | 1.6 | 1.6 | 0.00 | 0.00 | 0.00 | 50 | 1027.5 |
| 20260906045104 | 22 | 83 | 1.6 | 3.2 | 0.00 | 0.00 | 0.00 | 49 | 1027.5 |
| 20260906044600 | 22 | 344 | 1.6 | 1.6 | 0.00 | 0.00 | 0.00 | 48 | 1026.8 |
| 20260906044055 | 22 | 333 | 0.0 | 1.6 | 0.00 | 0.00 | 0.00 | 48 | 1026.9 |
| 20260906043551 | 22 | 310 | 0.0 | 1.6 | 0.00 | 0.00 | 0.00 | 48 | 1026.7 |
| 20260906043047 | 22 | 294 | 0.0 | 1.6 | 0.00 | 0.00 | 0.00 | 49 | 1026.7 |
| 20260906042546 | 22 | 307 | 0.0 | 3.2 | 0.00 | 0.00 | 0.00 | 48 | 1026.8 |
| 20260906042040 | 22 | 106 | 3.2 | 4.8 | 0.00 | 0.00 | 0.00 | 48 | 1027.0 |
| 20260906041537 | 22 | 57 | 1.6 | 3.2 | 0.00 | 0.00 | 0.00 | 47 | 1026.7 |
| 20260906041031 | 22 | 56 | 0.0 | 1.6 | 0.00 | 0.00 | 0.00 | 47 | 1026.5 |
| 20260906040526 | 22 | 35 | 1.6 | 4.8 | 0.00 | 0.00 | 0.00 | 46 | 1026.6 |
| 20260906040022 | 22 | 295 | 0.0 | 0.0 | 0.00 | 0.00 | 0.00 | 46 | 1026.3 |
| 20260906035511 | 22 | 305 | 0.0 | 0.0 | 0.00 | 0.00 | 0.00 | 45 | 1026.6 |
| 20260906035007 | 23 | 310 | 0.0 | 1.6 | 0.00 | 0.00 | 0.00 | 44 | 1026.6 |
| 20260906034506 | 22 | 11 | 1.6 | 1.6 | 0.00 | 0.00 | 0.00 | 45 | 1026.6 |
| 20260906033955 | 23 | 294 | 0.0 | 0.0 | 0.00 | 0.00 | 0.00 | 45 | 1026.5 |
| 20260906033450 | 23 | 285 | 0.0 | 0.0 | 0.00 | 0.00 | 0.00 | 44 | 1026.6 |
| 20260906032946 | 23 | 297 | 0.0 | 1.6 | 0.00 | 0.00 | 0.00 | 44 | 1026.6 |
| 20260906032442 | 24 | 296 | 0.0 | 0.0 | 0.00 | 0.00 | 0.00 | 42 | 1026.7 |
| 20260906031936 | 24 | 315 | 0.0 | 0.0 | 0.00 | 0.00 | 0.00 | 42 | 1026.5 |
| 20260906031432 | 25 | 296 | 0.0 | 0.0 | 0.00 | 0.00 | 0.00 | 41 | 1026.3 |
| 20260906030927 | 25 | 330 | 1.6 | 3.2 | 0.00 | 0.00 | 0.00 | 41 | 1026.2 |
| 20260906030422 | 25 | 325 | 1.6 | 3.2 | 0.00 | 0.00 | 0.00 | 40 | 1026.2 |
| 20260906025917 | 25 | 320 | 0.0 | 3.2 | 0.00 | 0.00 | 0.00 | 39 | 1026.2 |
| 20260906025411 | 26 | 330 | 1.6 | 1.6 | 0.00 | 0.00 | 0.00 | 37 | 1026.2 |
| 20260906024910 | 26 | 267 | 1.6 | 1.6 | 0.00 | 0.00 | 0.00 | 37 | 1026.0 |
| 20260906024409 | 26 | 17 | 6.4 | 9.7 | 0.00 | 0.00 | 0.00 | 35 | 1026.0 |
| 20260906023905 | 26 | 17 | 4.8 | 9.7 | 0.00 | 0.00 | 0.00 | 34 | 1025.9 |
| 20260906023401 | 26 | 332 | 1.6 | 3.2 | 0.00 | 0.00 | 0.00 | 35 | 1025.9 |
| 20260906022901 | 27 | 340 | 4.8 | 9.7 | 0.00 | 0.00 | 0.00 | 33 | 1026.0 |
| 20260906022355 | 27 | 311 | 0.0 | 0.0 | 0.00 | 0.00 | 0.00 | 32 | 1025.8 |
| 20260906021851 | 27 | 309 | 1.6 | 1.6 | 0.00 | 0.00 | 0.00 | 32 | 1025.5 |
| 20260906021350 | 27 | 298 | 0.0 | 3.2 | 0.00 | 0.00 | 0.00 | 32 | 1025.5 |
| 20260906020845 | 27 | 288 | 0.0 | 4.8 | 0.00 | 0.00 | 0.00 | 32 | 1025.4 |
| 20260906020345 | 27 | 295 | 1.6 | 4.8 | 0.00 | 0.00 | 0.00 | 32 | 1025.2 |
| 20260906015840 | 27 | 275 | 4.8 | 9.7 | 0.00 | 0.00 | 0.00 | 32 | 1025.4 |
| 20260906015339 | 27 | 268 | 1.6 | 9.7 | 0.00 | 0.00 | 0.00 | 32 | 1025.5 |
| 20260906014833 | 27 | 281 | 3.2 | 3.2 | 0.00 | 0.00 | 0.00 | 32 | 1025.5 |
| 20260906014328 | 27 | 279 | 1.6 | 3.2 | 0.00 | 0.00 | 0.00 | 32 | 1025.2 |
| 20260906013824 | 28 | 272 | 6.4 | 11.3 | 0.00 | 0.00 | 0.00 | 31 | 1025.2 |
| 20260906013319 | 28 | 285 | 1.6 | 4.8 | 0.00 | 0.00 | 0.00 | 32 | 1025.1 |
| 20260906012814 | 28 | 294 | 9.7 | 14.5 | 0.00 | 0.00 | 0.00 | 31 | 1025.2 |
| 20260906012309 | 27 | 227 | 4.8 | 11.3 | 0.00 | 0.00 | 0.00 | 32 | 1025.4 |
| 20260906011804 | 27 | 299 | 0.0 | 1.6 | 0.00 | 0.00 | 0.00 | 33 | 1025.4 |
| 20260906011303 | 28 | 307 | 3.2 | 6.4 | 0.00 | 0.00 | 0.00 | 32 | 1025.3 |
| 20260906010759 | 28 | 306 | 3.2 | 6.4 | 0.00 | 0.00 | 0.00 | 32 | 1025.4 |
| 20260906010256 | 28 | 297 | 4.8 | 14.5 | 0.00 | 0.00 | 0.00 | 31 | 1025.5 |
| 20260906005751 | 28 | 298 | 1.6 | 6.4 | 0.00 | 0.00 | 0.00 | 31 | 1025.3 |
| 20260906005250 | 28 | 299 | 1.6 | 9.7 | 0.00 | 0.00 | 0.00 | 32 | 1025.3 |
| 20260906004749 | 28 | 323 | 1.6 | 4.8 | 0.00 | 0.00 | 0.00 | 32 | 1025.6 |
| 20260906004244 | 28 | 310 | 3.2 | 3.2 | 0.00 | 0.00 | 0.00 | 31 | 1025.5 |
| 20260906003739 | 29 | 276 | 1.6 | 9.7 | 0.00 | 0.00 | 0.00 | 31 | 1025.5 |
| 20260906003235 | 29 | 297 | 3.2 | 9.7 | 0.00 | 0.00 | 0.00 | 30 | 1025.5 |
| 20260906002735 | 30 | 312 | 3.2 | 4.8 | 0.00 | 0.00 | 0.00 | 30 | 1025.5 |
| 20260906002235 | 30 | 267 | 1.6 | 4.8 | 0.00 | 0.00 | 0.00 | 29 | 1025.4 |
| 20260906001731 | 30 | 299 | 1.6 | 6.4 | 0.00 | 0.00 | 0.00 | 29 | 1025.3 |
| 20260906001225 | 30 | 285 | 4.8 | 9.7 | 0.00 | 0.00 | 0.00 | 29 | 1025.2 |
| 20260906000721 | 30 | 277 | 6.4 | 9.7 | 0.00 | 0.00 | 0.00 | 29 | 1025.3 |
| 20260906000216 | 30 | 299 | 0.0 | 1.6 | 0.00 | 0.00 | 0.00 | 29 | 1025.3 |
| 20260905235715 | 31 | 291 | 6.4 | 11.3 | 0.00 | 0.00 | 0.00 | 28 | 1025.3 |
| 20260905235210 | 31 | 304 | 1.6 | 6.4 | 0.00 | 0.00 | 0.00 | 27 | 1025.3 |
| 20260905234706 | 32 | 207 | 6.4 | 12.9 | 0.00 | 0.00 | 0.00 | 26 | 1025.4 |
| 20260905234201 | 32 | 277 | 0.0 | 1.6 | 0.00 | 0.00 | 0.00 | 25 | 1025.1 |
| 20260905233656 | 32 | 235 | 1.6 | 1.6 | 0.00 | 0.00 | 0.00 | 26 | 1025.2 |
| 20260905233155 | 32 | 275 | 1.6 | 4.8 | 0.00 | 0.00 | 0.00 | 25 | 1024.9 |
| 20260905232650 | 32 | 297 | 0.0 | 1.6 | 0.00 | 0.00 | 0.00 | 24 | 1024.8 |
| 20260905232145 | 33 | 288 | 0.0 | 3.2 | 0.00 | 0.00 | 0.00 | 24 | 1024.9 |
| 20260905231640 | 32 | 275 | 0.0 | 1.6 | 0.00 | 0.00 | 0.00 | 24 | 1024.9 |
| 20260905231137 | 33 | 281 | 1.6 | 3.2 | 0.00 | 0.00 | 0.00 | 25 | 1024.6 |
| 20260905230627 | 33 | 289 | 0.0 | 0.0 | 0.00 | 0.00 | 0.00 | 24 | 1024.7 |
| 20260905230124 | 33 | 265 | 0.0 | 1.6 | 0.00 | 0.00 | 0.00 | 24 | 1024.7 |
| 20260905225618 | 33 | 299 | 0.0 | 1.6 | 0.00 | 0.00 | 0.00 | 24 | 1024.7 |
| 20260905225114 | 33 | 314 | 0.0 | 0.0 | 0.00 | 0.00 | 0.00 | 24 | 1024.7 |
| 20260905224608 | 33 | 296 | 0.0 | 1.6 | 0.00 | 0.00 | 0.00 | 24 | 1024.6 |
| 20260905224107 | 33 | 171 | 3.2 | 3.2 | 0.00 | 0.00 | 0.00 | 26 | 1024.7 |
| 20260905223605 | 35 | 251 | 0.0 | 1.6 | 0.00 | 0.00 | 0.00 | 22 | 1024.6 |
| 20260905223101 | 35 | 322 | 0.0 | 1.6 | 0.00 | 0.00 | 0.00 | 22 | 1024.6 |
| 20260905222601 | 33 | 298 | 0.0 | 3.2 | 0.00 | 0.00 | 0.00 | 22 | 1024.6 |
| 20260905222056 | 33 | 106 | 4.8 | 9.7 | 0.00 | 0.00 | 0.00 | 23 | 1024.6 |
| 20260905221552 | 34 | 213 | 0.0 | 4.8 | 0.00 | 0.00 | 0.00 | 22 | 1024.5 |
| 20260905221048 | 33 | 108 | 4.8 | 9.7 | 0.00 | 0.00 | 0.00 | 22 | 1024.5 |
| 20260905220543 | 33 | 33 | 3.2 | 4.8 | 0.00 | 0.00 | 0.00 | 23 | 1024.6 |
| 20260905220039 | 34 | 94 | 8.0 | 11.3 | 0.00 | 0.00 | 0.00 | 22 | 1024.7 |
| 20260905215538 | 33 | 336 | 1.6 | 11.3 | 0.00 | 0.00 | 0.00 | 23 | 1024.8 |